| time (UTC) | temp F | wind direction | speed MPH | gust MPH | rain 1hr in | rain 24hr in | rain mn in | humidity % | barometer mb |
| 20260504204739 | 77 | 225 | 4.0 | 11.0 | 0.00 | 0.00 | 0.00 | 22 | 1008.9 |
| 20260504204433 | 77 | 296 | 3.0 | 11.0 | 0.00 | 0.00 | 0.00 | 23 | 1008.8 |
| 20260504204125 | 76 | 127 | 4.0 | 11.0 | 0.00 | 0.00 | 0.00 | 22 | 1008.8 |
| 20260504203827 | 76 | 153 | 3.0 | 13.0 | 0.00 | 0.00 | 0.00 | 23 | 1008.8 |
| 20260504203513 | 76 | 233 | 4.0 | 13.0 | 0.00 | 0.00 | 0.00 | 21 | 1008.8 |
| 20260504203209 | 76 | 224 | 3.0 | 13.0 | 0.00 | 0.00 | 0.00 | 23 | 1008.9 |
| 20260504202905 | 76 | 197 | 3.0 | 13.0 | 0.00 | 0.00 | 0.00 | 21 | 1009.0 |
| 20260504202604 | 76 | 243 | 3.0 | 13.0 | 0.00 | 0.00 | 0.00 | 21 | 1009.0 |
| 20260504202257 | 76 | 264 | 3.0 | 13.0 | 0.00 | 0.00 | 0.00 | 22 | 1009.0 |
| 20260504202000 | 76 | 320 | 3.0 | 13.0 | 0.00 | 0.00 | 0.00 | 22 | 1009.1 |
| 20260504201648 | 76 | 181 | 3.0 | 13.0 | 0.00 | 0.00 | 0.00 | 23 | 1009.1 |
| 20260504201338 | 76 | 180 | 4.0 | 13.0 | 0.00 | 0.00 | 0.00 | 23 | 1009.1 |
| 20260504201026 | 76 | 179 | 4.0 | 13.0 | 0.00 | 0.00 | 0.00 | 21 | 1009.2 |
| 20260504200716 | 76 | 171 | 4.0 | 17.0 | 0.00 | 0.00 | 0.00 | 21 | 1009.3 |
| 20260504200418 | 76 | 173 | 4.0 | 17.0 | 0.00 | 0.00 | 0.00 | 22 | 1009.3 |
| 20260504200110 | 76 | 197 | 4.0 | 17.0 | 0.00 | 0.00 | 0.00 | 22 | 1009.4 |
| 20260504195805 | 76 | 237 | 4.0 | 17.0 | 0.00 | 0.00 | 0.00 | 21 | 1009.4 |
| 20260504195055 | 76 | 199 | 4.0 | 17.0 | 0.00 | 0.00 | 0.00 | 22 | 1009.5 |
| 20260504194752 | 76 | 259 | 3.0 | 15.0 | 0.00 | 0.00 | 0.00 | 22 | 1009.5 |
| 20260504194021 | 76 | 185 | 4.0 | 15.0 | 0.00 | 0.00 | 0.00 | 22 | 1009.6 |
| 20260504193258 | 76 | 195 | 4.0 | 13.0 | 0.00 | 0.00 | 0.00 | 23 | 1009.8 |
| 20260504193002 | 76 | 220 | 4.0 | 13.0 | 0.00 | 0.00 | 0.00 | 24 | 1009.9 |
| 20260504192657 | 76 | 281 | 4.0 | 13.0 | 0.00 | 0.00 | 0.00 | 23 | 1009.9 |
| 20260504191940 | 76 | 185 | 4.0 | 14.0 | 0.00 | 0.00 | 0.00 | 24 | 1010.0 |
| 20260504191219 | 75 | 147 | 5.0 | 15.0 | 0.00 | 0.00 | 0.00 | 25 | 1010.2 |
| 20260504190906 | 76 | 267 | 5.0 | 15.0 | 0.00 | 0.00 | 0.00 | 23 | 1010.2 |
| 20260504190601 | 76 | 179 | 6.0 | 15.0 | 0.00 | 0.00 | 0.00 | 24 | 1010.2 |
| 20260504185842 | 76 | 286 | 4.0 | 15.0 | 0.00 | 0.00 | 0.00 | 24 | 1010.4 |
| 20260504184707 | 76 | 249 | 3.0 | 13.0 | 0.00 | 0.00 | 0.00 | 24 | 1010.6 |
| 20260504184401 | 76 | 9 | 3.0 | 13.0 | 0.00 | 0.00 | 0.00 | 27 | 1010.6 |
| 20260504183640 | 75 | 195 | 4.0 | 14.0 | 0.00 | 0.00 | 0.00 | 24 | 1010.8 |
| 20260504183329 | 75 | 178 | 4.0 | 14.0 | 0.00 | 0.00 | 0.00 | 28 | 1010.9 |
| 20260504183017 | 75 | 282 | 4.0 | 14.0 | 0.00 | 0.00 | 0.00 | 24 | 1010.8 |
| 20260504182716 | 75 | 233 | 5.0 | 14.0 | 0.00 | 0.00 | 0.00 | 25 | 1010.9 |
| 20260504182405 | 74 | 283 | 5.0 | 14.0 | 0.00 | 0.00 | 0.00 | 25 | 1010.9 |
| 20260504182109 | 74 | 225 | 5.0 | 14.0 | 0.00 | 0.00 | 0.00 | 23 | 1011.2 |
| 20260504181754 | 75 | 218 | 4.0 | 14.0 | 0.00 | 0.00 | 0.00 | 26 | 1011.2 |
| 20260504180607 | 74 | 234 | 5.0 | 13.0 | 0.00 | 0.00 | 0.00 | 24 | 1011.4 |
| 20260504174959 | 74 | 294 | 4.0 | 15.0 | 0.00 | 0.00 | 0.00 | 25 | 1011.6 |
| 20260504174652 | 74 | 170 | 4.0 | 15.0 | 0.00 | 0.00 | 0.00 | 27 | 1011.5 |
| 20260504174341 | 74 | 271 | 4.0 | 15.0 | 0.00 | 0.00 | 0.00 | 25 | 1011.6 |
| 20260504174030 | 74 | 265 | 4.0 | 15.0 | 0.00 | 0.00 | 0.00 | 25 | 1011.7 |
| 20260504173725 | 73 | 229 | 4.0 | 12.0 | 0.00 | 0.00 | 0.00 | 26 | 1011.7 |
| 20260504173003 | 73 | 279 | 3.0 | 12.0 | 0.00 | 0.00 | 0.00 | 25 | 1011.7 |
| 20260504172702 | 73 | 190 | 3.0 | 12.0 | 0.00 | 0.00 | 0.00 | 26 | 1011.7 |
| 20260504172355 | 73 | 178 | 2.0 | 11.0 | 0.00 | 0.00 | 0.00 | 27 | 1011.8 |
| 20260504171635 | 73 | 244 | 3.0 | 11.0 | 0.00 | 0.00 | 0.00 | 26 | 1011.9 |
| 20260504170908 | 73 | 274 | 4.0 | 11.0 | 0.00 | 0.00 | 0.00 | 27 | 1012.0 |
| 20260504160407 | 70 | 261 | 5.0 | 14.0 | 0.00 | 0.00 | 0.00 | 27 | 1013.0 |
| 20260504151146 | 66 | 336 | 4.0 | 11.0 | 0.00 | 0.00 | 0.00 | 30 | 1013.9 |
| 20260504150844 | 65 | 277 | 3.0 | 12.0 | 0.00 | 0.00 | 0.00 | 30 | 1014.0 |
| 20260504141125 | 59 | 97 | 1.0 | 3.0 | 0.00 | 0.00 | 0.00 | 38 | 1014.0 |
| 20260504140818 | 58 | 276 | 0.0 | 3.0 | 0.00 | 0.00 | 0.00 | 36 | 1014.2 |
| 20260504140511 | 58 | 190 | 0.0 | 3.0 | 0.00 | 0.00 | 0.00 | 36 | 1014.2 |
| 20260504140210 | 58 | 203 | 0.0 | 3.0 | 0.00 | 0.00 | 0.00 | 37 | 1014.3 |
| 20260504130646 | 54 | 333 | 1.0 | 6.0 | 0.00 | 0.00 | 0.00 | 39 | 1014.7 |
| 20260504130347 | 54 | 278 | 1.0 | 6.0 | 0.00 | 0.00 | 0.00 | 41 | 1014.9 |
| 20260504120251 | 48 | 248 | 0.0 | 0.0 | 0.00 | 0.00 | 0.00 | 50 | 1015.2 |
| 20260504110510 | 39 | 268 | 0.0 | 0.0 | 0.00 | 0.00 | 0.00 | 65 | 1015.0 |
| 20260504110211 | 38 | 268 | 0.0 | 0.0 | 0.00 | 0.00 | 0.00 | 65 | 1015.0 |
| 20260504100551 | 36 | 268 | 0.0 | 0.0 | 0.00 | 0.00 | 0.00 | 65 | 1015.2 |
| 20260504100248 | 36 | 268 | 0.0 | 0.0 | 0.00 | 0.00 | 0.00 | 65 | 1015.3 |
| 20260504081911 | 38 | 251 | 0.0 | 1.0 | 0.00 | 0.00 | 0.00 | 62 | 1015.5 |
| 20260504081604 | 38 | 251 | 0.0 | 1.0 | 0.00 | 0.00 | 0.00 | 62 | 1015.7 |
| 20260504081258 | 38 | 248 | 0.0 | 0.0 | 0.00 | 0.00 | 0.00 | 62 | 1015.6 |
| 20260504080948 | 38 | 248 | 0.0 | 0.0 | 0.00 | 0.00 | 0.00 | 62 | 1015.7 |
| 20260504080652 | 38 | 248 | 0.0 | 0.0 | 0.00 | 0.00 | 0.00 | 62 | 1015.6 |
| 20260504060159 | 40 | 264 | 0.0 | 0.0 | 0.00 | 0.00 | 0.00 | 59 | 1015.7 |
| 20260504050105 | 41 | 243 | 0.0 | 0.0 | 0.00 | 0.00 | 0.00 | 56 | 1015.6 |
| 20260504045800 | 41 | 243 | 0.0 | 0.0 | 0.00 | 0.00 | 0.00 | 56 | 1015.7 |
| 20260504045446 | 41 | 243 | 0.0 | 0.0 | 0.00 | 0.00 | 0.00 | 56 | 1015.7 |
| 20260504045137 | 42 | 243 | 0.0 | 0.0 | 0.00 | 0.00 | 0.00 | 56 | 1015.7 |
| 20260504044840 | 42 | 243 | 0.0 | 0.0 | 0.00 | 0.00 | 0.00 | 55 | 1015.8 |
| 20260504044527 | 42 | 243 | 0.0 | 0.0 | 0.00 | 0.00 | 0.00 | 55 | 1015.7 |
| 20260504044221 | 42 | 243 | 0.0 | 0.0 | 0.00 | 0.00 | 0.00 | 55 | 1015.9 |
| 20260504043907 | 42 | 243 | 0.0 | 0.0 | 0.00 | 0.00 | 0.00 | 55 | 1015.8 |
| 20260504043605 | 42 | 243 | 0.0 | 0.0 | 0.00 | 0.00 | 0.00 | 55 | 1015.9 |
| 20260504043258 | 42 | 240 | 0.0 | 0.0 | 0.00 | 0.00 | 0.00 | 55 | 1015.8 |
| 20260504042959 | 42 | 240 | 0.0 | 0.0 | 0.00 | 0.00 | 0.00 | 55 | 1015.8 |
| 20260504042232 | 42 | 240 | 0.0 | 0.0 | 0.00 | 0.00 | 0.00 | 54 | 1015.8 |
| 20260504041929 | 42 | 240 | 0.0 | 0.0 | 0.00 | 0.00 | 0.00 | 54 | 1015.7 |
| 20260504041616 | 42 | 205 | 0.0 | 0.0 | 0.00 | 0.00 | 0.00 | 54 | 1015.8 |
| 20260504041303 | 43 | 163 | 0.0 | 0.0 | 0.00 | 0.00 | 0.00 | 54 | 1015.7 |
| 20260504040553 | 43 | 163 | 0.0 | 0.0 | 0.00 | 0.00 | 0.00 | 54 | 1015.7 |
| 20260504040241 | 43 | 163 | 0.0 | 0.0 | 0.00 | 0.00 | 0.00 | 54 | 1015.8 |
| 20260504035943 | 43 | 163 | 0.0 | 0.0 | 0.00 | 0.00 | 0.00 | 54 | 1015.8 |
| 20260504035639 | 43 | 164 | 0.0 | 0.0 | 0.00 | 0.00 | 0.00 | 53 | 1015.8 |
| 20260504035339 | 43 | 164 | 0.0 | 0.0 | 0.00 | 0.00 | 0.00 | 53 | 1015.9 |
| 20260504035039 | 43 | 160 | 0.0 | 0.0 | 0.00 | 0.00 | 0.00 | 53 | 1015.8 |
| 20260504034735 | 43 | 160 | 0.0 | 0.0 | 0.00 | 0.00 | 0.00 | 53 | 1015.7 |
| 20260504034423 | 43 | 160 | 0.0 | 0.0 | 0.00 | 0.00 | 0.00 | 52 | 1015.8 |
| 20260504034126 | 44 | 150 | 0.0 | 0.0 | 0.00 | 0.00 | 0.00 | 51 | 1015.7 |
| 20260504033813 | 44 | 147 | 0.0 | 0.0 | 0.00 | 0.00 | 0.00 | 52 | 1015.6 |
| 20260504033512 | 44 | 147 | 0.0 | 0.0 | 0.00 | 0.00 | 0.00 | 52 | 1015.7 |
| 20260504033207 | 44 | 147 | 0.0 | 0.0 | 0.00 | 0.00 | 0.00 | 51 | 1015.5 |
| 20260504032449 | 44 | 147 | 0.0 | 0.0 | 0.00 | 0.00 | 0.00 | 51 | 1015.5 |
| 20260504032142 | 44 | 153 | 0.0 | 0.0 | 0.00 | 0.00 | 0.00 | 51 | 1015.4 |
| 20260504031832 | 44 | 261 | 0.0 | 0.0 | 0.00 | 0.00 | 0.00 | 50 | 1015.4 |
| 20260504031114 | 45 | 261 | 0.0 | 0.0 | 0.00 | 0.00 | 0.00 | 51 | 1015.3 |
| 20260504030808 | 45 | 261 | 0.0 | 0.0 | 0.00 | 0.00 | 0.00 | 51 | 1015.3 |
| 20260504030503 | 45 | 261 | 0.0 | 0.0 | 0.00 | 0.00 | 0.00 | 51 | 1015.3 |
| 20260504030154 | 45 | 261 | 0.0 | 0.0 | 0.00 | 0.00 | 0.00 | 51 | 1015.1 |
| 20260504025418 | 45 | 261 | 0.0 | 0.0 | 0.00 | 0.00 | 0.00 | 50 | 1015.1 |
| 20260504024237 | 46 | 261 | 0.0 | 0.0 | 0.00 | 0.00 | 0.00 | 49 | 1015.2 |
| 20260504023938 | 46 | 261 | 0.0 | 0.0 | 0.00 | 0.00 | 0.00 | 49 | 1015.2 |
| 20260504023642 | 46 | 260 | 0.0 | 0.0 | 0.00 | 0.00 | 0.00 | 48 | 1015.2 |
| 20260504022901 | 46 | 260 | 0.0 | 0.0 | 0.00 | 0.00 | 0.00 | 47 | 1015.2 |
| 20260504022151 | 46 | 260 | 0.0 | 0.0 | 0.00 | 0.00 | 0.00 | 47 | 1015.2 |
| 20260504021848 | 46 | 260 | 0.0 | 0.0 | 0.00 | 0.00 | 0.00 | 46 | 1015.1 |
| 20260504021545 | 47 | 260 | 0.0 | 0.0 | 0.00 | 0.00 | 0.00 | 46 | 1015.1 |
| 20260504021240 | 47 | 260 | 0.0 | 0.0 | 0.00 | 0.00 | 0.00 | 45 | 1015.1 |
| 20260504020937 | 47 | 260 | 0.0 | 0.0 | 0.00 | 0.00 | 0.00 | 44 | 1015.1 |
| 20260504020628 | 47 | 260 | 0.0 | 0.0 | 0.00 | 0.00 | 0.00 | 44 | 1015.0 |
| 20260504020326 | 47 | 260 | 0.0 | 0.0 | 0.00 | 0.00 | 0.00 | 44 | 1015.2 |
| 20260504020025 | 47 | 260 | 0.0 | 0.0 | 0.00 | 0.00 | 0.00 | 43 | 1015.1 |
| 20260504015721 | 48 | 260 | 0.0 | 0.0 | 0.00 | 0.00 | 0.00 | 45 | 1015.1 |
| 20260504015414 | 48 | 260 | 0.0 | 0.0 | 0.00 | 0.00 | 0.00 | 44 | 1015.1 |
| 20260504015102 | 48 | 260 | 0.0 | 0.0 | 0.00 | 0.00 | 0.00 | 43 | 1015.2 |
| 20260504014342 | 49 | 260 | 0.0 | 0.0 | 0.00 | 0.00 | 0.00 | 42 | 1015.1 |
| 20260504014031 | 49 | 260 | 0.0 | 0.0 | 0.00 | 0.00 | 0.00 | 41 | 1015.0 |
| 20260504013730 | 49 | 260 | 0.0 | 0.0 | 0.00 | 0.00 | 0.00 | 40 | 1015.0 |
| 20260504013428 | 49 | 260 | 0.0 | 0.0 | 0.00 | 0.00 | 0.00 | 40 | 1015.1 |
| 20260504013115 | 49 | 260 | 0.0 | 0.0 | 0.00 | 0.00 | 0.00 | 41 | 1015.0 |
| 20260504012806 | 50 | 260 | 0.0 | 0.0 | 0.00 | 0.00 | 0.00 | 40 | 1015.2 |
| 20260504012500 | 50 | 260 | 0.0 | 0.0 | 0.00 | 0.00 | 0.00 | 38 | 1015.1 |
| 20260504012148 | 50 | 260 | 0.0 | 0.0 | 0.00 | 0.00 | 0.00 | 38 | 1015.0 |
| 20260504011846 | 50 | 260 | 0.0 | 0.0 | 0.00 | 0.00 | 0.00 | 38 | 1015.0 |
| 20260504011117 | 51 | 260 | 0.0 | 0.0 | 0.00 | 0.00 | 0.00 | 38 | 1015.0 |
| 20260504010352 | 51 | 260 | 0.0 | 0.0 | 0.00 | 0.00 | 0.00 | 37 | 1014.9 |
| 20260504010048 | 52 | 260 | 0.0 | 0.0 | 0.00 | 0.00 | 0.00 | 37 | 1014.9 |
| 20260504005750 | 52 | 260 | 0.0 | 0.0 | 0.00 | 0.00 | 0.00 | 36 | 1014.9 |
| 20260504005029 | 53 | 261 | 0.0 | 0.0 | 0.00 | 0.00 | 0.00 | 36 | 1014.8 |
| 20260504004729 | 53 | 262 | 0.0 | 0.0 | 0.00 | 0.00 | 0.00 | 35 | 1014.7 |
| 20260504004427 | 53 | 262 | 0.0 | 0.0 | 0.00 | 0.00 | 0.00 | 36 | 1014.7 |
| 20260504004117 | 53 | 262 | 0.0 | 0.0 | 0.00 | 0.00 | 0.00 | 34 | 1014.7 |
| 20260504003804 | 54 | 262 | 0.0 | 0.0 | 0.00 | 0.00 | 0.00 | 33 | 1014.7 |
| 20260504003505 | 54 | 262 | 0.0 | 0.0 | 0.00 | 0.00 | 0.00 | 32 | 1014.9 |
| 20260504002732 | 55 | 292 | 0.0 | 0.0 | 0.00 | 0.00 | 0.00 | 31 | 1014.8 |
| 20260504002420 | 55 | 292 | 0.0 | 0.0 | 0.00 | 0.00 | 0.00 | 31 | 1014.7 |
| 20260504001702 | 55 | 317 | 0.0 | 3.0 | 0.00 | 0.00 | 0.00 | 29 | 1014.5 |
| 20260504000938 | 56 | 326 | 0.0 | 1.0 | 0.00 | 0.00 | 0.00 | 28 | 1014.5 |
| 20260504000222 | 57 | 263 | 0.0 | 3.0 | 0.00 | 0.00 | 0.00 | 28 | 1014.5 |
| 20260503235919 | 57 | 292 | 0.0 | 2.0 | 0.00 | 0.00 | 0.00 | 27 | 1014.5 |
| 20260503235158 | 57 | 271 | 0.0 | 8.0 | 0.00 | 0.00 | 0.00 | 27 | 1014.4 |
| 20260503234850 | 57 | 305 | 0.0 | 8.0 | 0.00 | 0.00 | 0.00 | 26 | 1014.4 |
| 20260503234125 | 58 | 273 | 2.0 | 8.0 | 0.00 | 0.00 | 0.00 | 25 | 1014.3 |
| 20260503233823 | 58 | 223 | 2.0 | 8.0 | 0.00 | 0.00 | 0.00 | 26 | 1014.4 |
| 20260503233056 | 58 | 275 | 2.0 | 7.0 | 0.00 | 0.00 | 0.00 | 26 | 1014.1 |
| 20260503232745 | 58 | 281 | 1.0 | 7.0 | 0.00 | 0.00 | 0.00 | 25 | 1014.1 |
| 20260503232025 | 59 | 269 | 2.0 | 7.0 | 0.00 | 0.00 | 0.00 | 24 | 1014.2 |
| 20260503231726 | 59 | 319 | 2.0 | 7.0 | 0.00 | 0.00 | 0.00 | 25 | 1014.1 |
| 20260503230957 | 59 | 321 | 1.0 | 10.0 | 0.00 | 0.00 | 0.00 | 25 | 1014.1 |
| 20260503230655 | 59 | 324 | 1.0 | 10.0 | 0.00 | 0.00 | 0.00 | 24 | 1014.1 |
| 20260503230342 | 59 | 281 | 1.0 | 10.0 | 0.00 | 0.00 | 0.00 | 25 | 1014.1 |
| 20260503230041 | 59 | 270 | 2.0 | 10.0 | 0.00 | 0.00 | 0.00 | 26 | 1014.1 |
| 20260503225736 | 60 | 348 | 2.0 | 10.0 | 0.00 | 0.00 | 0.00 | 23 | 1014.1 |
| 20260503225428 | 60 | 336 | 3.0 | 10.0 | 0.00 | 0.00 | 0.00 | 23 | 1014.1 |
| 20260503225116 | 60 | 291 | 3.0 | 10.0 | 0.00 | 0.00 | 0.00 | 24 | 1014.1 |
| 20260503224814 | 60 | 279 | 3.0 | 10.0 | 0.00 | 0.00 | 0.00 | 22 | 1014.1 |
| 20260503224047 | 60 | 286 | 3.0 | 11.0 | 0.00 | 0.00 | 0.00 | 22 | 1014.1 |
| 20260503223311 | 60 | 277 | 3.0 | 15.0 | 0.00 | 0.00 | 0.00 | 22 | 1014.1 |
| 20260503223001 | 60 | 20 | 4.0 | 15.0 | 0.00 | 0.00 | 0.00 | 24 | 1014.1 |
| 20260503222242 | 60 | 284 | 5.0 | 15.0 | 0.00 | 0.00 | 0.00 | 21 | 1014.2 |
| 20260503221930 | 60 | 290 | 5.0 | 15.0 | 0.00 | 0.00 | 0.00 | 21 | 1014.1 |
| 20260503221618 | 60 | 292 | 4.0 | 15.0 | 0.00 | 0.00 | 0.00 | 21 | 1014.1 |
| 20260503220006 | 60 | 240 | 2.0 | 10.0 | 0.00 | 0.00 | 0.00 | 23 | 1014.1 |
| 20260503215652 | 60 | 305 | 2.0 | 10.0 | 0.00 | 0.00 | 0.00 | 22 | 1014.1 |
| 20260503215348 | 60 | 298 | 2.0 | 11.0 | 0.00 | 0.00 | 0.00 | 23 | 1014.1 |
| 20260503215037 | 60 | 133 | 3.0 | 11.0 | 0.00 | 0.00 | 0.00 | 24 | 1014.2 |
| 20260503214319 | 61 | 278 | 5.0 | 16.0 | 0.00 | 0.00 | 0.00 | 22 | 1014.2 |
| 20260503213544 | 61 | 286 | 5.0 | 16.0 | 0.00 | 0.00 | 0.00 | 23 | 1014.0 |
| 20260503212829 | 61 | 295 | 6.0 | 16.0 | 0.00 | 0.00 | 0.00 | 21 | 1014.1 |
| 20260503212518 | 61 | 269 | 5.0 | 16.0 | 0.00 | 0.00 | 0.00 | 21 | 1014.2 |
| 20260503212216 | 61 | 288 | 4.0 | 13.0 | 0.00 | 0.00 | 0.00 | 23 | 1014.1 |
| 20260503211919 | 61 | 275 | 2.0 | 10.0 | 0.00 | 0.00 | 0.00 | 21 | 1014.0 |
| 20260503211617 | 61 | 305 | 2.0 | 9.0 | 0.00 | 0.00 | 0.00 | 24 | 1014.0 |
| 20260503211321 | 61 | 298 | 3.0 | 15.0 | 0.00 | 0.00 | 0.00 | 23 | 1014.0 |
| 20260503211025 | 61 | 278 | 4.0 | 15.0 | 0.00 | 0.00 | 0.00 | 24 | 1014.0 |
| 20260503210717 | 61 | 305 | 4.0 | 15.0 | 0.00 | 0.00 | 0.00 | 22 | 1014.1 |
| 20260503210411 | 61 | 292 | 4.0 | 15.0 | 0.00 | 0.00 | 0.00 | 21 | 1014.2 |
| 20260503210101 | 61 | 335 | 4.0 | 15.0 | 0.00 | 0.00 | 0.00 | 21 | 1014.1 |
| 20260503205751 | 62 | 290 | 5.0 | 15.0 | 0.00 | 0.00 | 0.00 | 20 | 1014.1 |
| 20260503205443 | 62 | 238 | 5.0 | 14.0 | 0.00 | 0.00 | 0.00 | 21 | 1014.1 |
| 20260503205130 | 62 | 246 | 5.0 | 14.0 | 0.00 | 0.00 | 0.00 | 21 | 1014.2 |